Weather History for Jaipur, India

Change the Weather History Date:

Saturday, February 2, 2013

  Actual Average Record
Temperature  
Mean Temperature 66 °F -  
Max Temperature 76 °F - - ()
Min Temperature 56 °F - - ()
Cooling Degree Days 1    
Growing Degree Days 16 (Base 50)    
Moisture  
Dew Point 46 °F    
Average Humidity 49    
Maximum Humidity 64    
Minimum Humidity 20    
Precipitation  
Precipitation 0.00 in - - ()
Sea Level Pressure  
Sea Level Pressure 30.05 in    
Wind  
Wind Speed 3 mph ()    
Max Wind Speed 8 mph    
Max Gust Speed -    
Visibility 1.3 miles    
Events      
T = Trace of Precipitation, MM = Missing Value Source: Averaged Metar Reports

Daily Weather History Graph

Daily Weather History Graph

Search for Another Location

Airport:

Trip Planner

Search our weather history database for the weather conditions in past years. The results will help you decide how hot, cold, wet, or windy it might be!

Date:

Astronomy

Feb. 02, 2013 Rise Set
Actual Time 7:11 AM IST 6:09 PM IST
Civil Twilight 6:47 AM IST 6:33 PM IST
Nautical Twilight 6:19 AM IST 7:01 PM IST
Astronomical Twilight 5:52 AM IST 7:29 PM IST
Moon 12:08 AM IST (2/3) 10:44 AM IST (2/2)
Length of Visible Light 11h 46m
Length of Day
10h 57m
Waning Gibbous, 64% of the Moon is Illuminated
Feb 2
Waning Gibbous
Feb 3
Last Quarter
Feb 10
New
Feb 18
First Quarter
Feb 26
Full

Hourly Weather History & Observations

Time (IST) Temp. Dew Point Humidity Pressure Visibility Wind Dir Wind Speed Gust Speed Precip Events Conditions
12:00 AM 64.4 °F 46.4 °F 52% 30.06 in 1.2 mi ENE 4.6 mph - N/A   Haze
1:00 AM 62.6 °F 46.4 °F 55% 30.06 in 1.2 mi ESE 4.6 mph - N/A   Smoke
2:00 AM 62.6 °F 46.4 °F 55% 30.06 in 1.2 mi East 4.6 mph - N/A   Smoke
2:30 AM 61 °F 45 °F 45% 30.03 in 1 mi Calm Calm - -   Smoke
2:30 AM 60.8 °F 44.6 °F 55% 30.06 in 1.2 mi Calm Calm - N/A   Haze
3:00 AM 60.8 °F 44.6 °F 55% 30.04 in 1.2 mi East 4.6 mph - N/A   Smoke
4:00 AM 62.6 °F 46.4 °F 55% 30.04 in 1.2 mi East 4.6 mph - N/A   Smoke
5:00 AM 60.8 °F 46.4 °F 59% 30.04 in 1.2 mi Variable 3.5 mph - N/A   Smoke
5:30 AM 62 °F 45 °F 42% 30.02 in 1 mi East 4.6 mph - -   Smoke
6:00 AM 62.6 °F 46.4 °F 55% 30.04 in 1.2 mi East 5.8 mph - N/A   Smoke
6:30 AM 60.8 °F 46.4 °F 59% 30.06 in 1.2 mi East 3.5 mph - N/A   Haze
7:00 AM 59.0 °F 46.4 °F 63% 30.06 in 1.2 mi Calm Calm - N/A   Smoke
8:00 AM 60.8 °F 46.4 °F 59% 30.09 in 1.2 mi Calm Calm - N/A   Smoke
8:30 AM 60 °F 50 °F 60% 30.08 in 1 mi Calm Calm - -   Smoke
9:00 AM 62.6 °F 48.2 °F 59% 30.12 in 1.2 mi Variable 2.3 mph - N/A   Smoke
10:00 AM 64.4 °F 46.4 °F 52% 30.12 in 1.6 mi ENE 5.8 mph - N/A   Haze
11:00 AM 66.2 °F 46.4 °F 49% 30.12 in 1.6 mi Variable 3.5 mph - N/A   Haze
11:30 AM 68 °F 47 °F 36% 30.09 in 1 mi ESE 4.6 mph - -   Haze
1:00 PM 71.6 °F 42.8 °F 35% 30.06 in 1.9 mi East 5.8 mph - N/A   Haze
2:00 PM 73.4 °F 42.8 °F 33% 30.04 in 1.9 mi SE 6.9 mph - N/A   Haze
2:30 PM 74 °F 41 °F 20% 29.99 in 1 mi East 6.9 mph - -   Haze
2:30 PM 73.4 °F 41.0 °F 31% 30.04 in 1.9 mi East 8.1 mph - N/A   Haze
3:00 PM 75.2 °F 39.2 °F 27% 30.04 in 1.9 mi Variable 5.8 mph - N/A   Haze
4:00 PM 75.2 °F 44.6 °F 34% 30.01 in 1.9 mi SE 8.1 mph - N/A   Haze
5:00 PM 73.4 °F 46.4 °F 38% 30.01 in 1.9 mi SSE 3.5 mph - N/A   Haze
5:30 PM 72 °F 45 °F 27% 29.97 in 1 mi SE 4.6 mph - -   Haze
5:30 PM 71.6 °F 46.4 °F 41% 30.01 in 1.9 mi SSE 4.6 mph - N/A   Haze
6:00 PM 69.8 °F 48.2 °F 46% 30.01 in 1.9 mi SE 3.5 mph - N/A   Haze
7:00 PM 68.0 °F 48.2 °F 49% 30.04 in 1.2 mi ESE 4.6 mph - N/A   Smoke
8:00 PM 66.2 °F 50.0 °F 56% 30.06 in 1.2 mi Variable 3.5 mph - N/A   Smoke
8:30 PM 64 °F 49 °F 49% 30.03 in 1 mi ENE 2.3 mph - -   Smoke
9:00 PM 64.4 °F 48.2 °F 56% 30.06 in 1.2 mi Variable 2.3 mph - N/A   Smoke
10:00 PM 62.6 °F 48.2 °F 59% 30.06 in 1.2 mi Calm Calm - N/A   Smoke
11:00 PM 60.8 °F 48.2 °F 63% 30.06 in 1.2 mi Calm Calm - N/A   Smoke
11:30 PM 59 °F 50 °F 64% 30.04 in 1 mi Calm Calm - -   Smoke
11:30 PM 60.8 °F 48.2 °F 63% 30.06 in 1.2 mi Calm Calm - N/A   Smoke